User: anonymous   Login
Location: Stigler
(35.2540°N, 95.1230°W)
Time: 17:17:50
(UTC-05:00)
Language:

Cosmos 1805 - Orbit

View from above orbital plane
View from above orbital plane
View from above satellite
View from above satellite

Ground track
Ground track

The orbit data is extracted from the following two-line orbital elements,

1 17191U 86097A   17289.22655427  .00001477  00000-0  84523-4 0  9994
2 17191  82.4725 270.2475 0005591  36.6490 323.5121 15.11905866681930
Epoch (UTC): 16 October 2017 05:26:14
Eccentricity: 0.0005591
inclination: 82.4725°
perigee height: 526 km
apogee height: 534 km
right ascension of ascending node: 270.2475°
argument of perigee: 36.6490°
revolutions per day: 15.11905866
mean anomaly at epoch: 323.5121°
orbit number at epoch: 68193

The dashed part of the orbit path shows where the satellite is in the earth's shadow,  

DLR